Tracking 18851 objects as of 25-Nov-2017
HD Live streaming from Space Station
objects crossing your sky now

FENGYUN 1C DEB

Track FENGYUN 1C DEB now!
10-day predictions


NORAD ID: 30359
Int'l Code: 1999-025ABW
Perigee: 834.1 km
Apogee: 1,108.0 km
Inclination: 101.6 °
Period: 104.3 minutes
Semi major axis: 7342 km
RCS: 0.0165 m2 (small)
Launch date: May 10, 1999
Source: People's Republic of China (PRC)
Launch site: Taiyaun Space Center, China (TSC)

Note: This is SATELLITE DEBRIS
aabbcc
Your satellite tracking list
Your tracking list is empty




NASA's NSSDC Master Catalog

Two Line Element Set (TLE):
1 30359U 99025ABW 17328.46898556  .00001056  00000-0  94613-3 0  9995
2 30359 101.6375 141.2252 0186533 333.2777  45.2144 13.80000069544369
Source of the keplerian elements: AFSPC